Darros Airport


Codes: FSDA/
Name: Darros Airport
City: Darros Island
Country: Seychelles
Elevation: 10 ft.
Wikipedia:

Photos at Darros Airport


   Photos courtesy of SpottingLog. You can add your own sightings and photos by signing up for a free trial today.



No photos found.

Weather at Darros Airport


Time (UTC)DescriptionTempratureWindCloud coverageVisibilityPressureHumidity
21-Jun-2024 12:00Light Rain27°C18 mph, SE17%10000m1012hPa80%
21-Jun-2024 15:00Few Clouds27°C18 mph, SE16%10000m1012hPa81%
21-Jun-2024 18:00Few Clouds27°C18 mph, SE11%10000m1013hPa81%
21-Jun-2024 21:00Scattered Clouds27°C20 mph, SE36%10000m1012hPa79%
22-Jun-2024 00:00Broken Clouds27°C22 mph, SE54%10000m1011hPa78%
22-Jun-2024 03:00Few Clouds27°C20 mph, SE20%10000m1012hPa77%
22-Jun-2024 06:00Scattered Clouds27°C20 mph, SE30%10000m1013hPa80%
22-Jun-2024 09:00Light Rain27°C20 mph, SE89%10000m1012hPa79%
22-Jun-2024 12:00Light Rain27°C20 mph, SE94%10000m1011hPa79%
22-Jun-2024 15:00Light Rain27°C20 mph, SE98%10000m1012hPa79%
22-Jun-2024 18:00Light Rain27°C22 mph, SE84%10000m1014hPa79%
22-Jun-2024 21:00Light Rain27°C22 mph, SE76%10000m1013hPa79%
23-Jun-2024 00:00Light Rain27°C22 mph, SE86%10000m1011hPa74%
23-Jun-2024 03:00Overcast Clouds27°C20 mph, SE98%10000m1012hPa76%
23-Jun-2024 06:00Overcast Clouds27°C18 mph, SE98%10000m1014hPa77%
23-Jun-2024 09:00Light Rain27°C18 mph, SE100%10000m1012hPa76%
23-Jun-2024 12:00Light Rain27°C18 mph, SE97%10000m1011hPa78%
23-Jun-2024 15:00Light Rain27°C18 mph, SE55%10000m1012hPa77%
23-Jun-2024 18:00Light Rain27°C18 mph, SE59%10000m1014hPa76%
23-Jun-2024 21:00Light Rain26°C20 mph, SE68%10000m1012hPa78%
24-Jun-2024 00:00Light Rain27°C22 mph, SE80%10000m1012hPa77%
24-Jun-2024 03:00Light Rain27°C22 mph, SE85%10000m1013hPa77%
24-Jun-2024 06:00Light Rain27°C20 mph, SE76%10000m1014hPa77%
24-Jun-2024 09:00Light Rain26°C18 mph, SE50%10000m1012hPa78%
24-Jun-2024 12:00Light Rain27°C16 mph, SE69%10000m1011hPa77%
24-Jun-2024 15:00Light Rain27°C13 mph, SE100%10000m1012hPa77%
24-Jun-2024 18:00Overcast Clouds27°C16 mph, SE100%10000m1013hPa78%
24-Jun-2024 21:00Light Rain27°C16 mph, SE100%10000m1012hPa78%
25-Jun-2024 00:00Light Rain27°C16 mph, SE95%10000m1011hPa78%
25-Jun-2024 03:00Light Rain27°C16 mph, SE100%10000m1012hPa73%
25-Jun-2024 06:00Light Rain27°C13 mph, SE98%10000m1013hPa76%
25-Jun-2024 09:00Light Rain27°C11 mph, SE100%10000m1012hPa74%
25-Jun-2024 12:00Overcast Clouds27°C11 mph, SE99%10000m1011hPa74%
25-Jun-2024 15:00Overcast Clouds27°C11 mph, SE97%10000m1011hPa70%
25-Jun-2024 18:00Overcast Clouds27°C13 mph, SE94%10000m1012hPa75%
25-Jun-2024 21:00Scattered Clouds26°C11 mph, SE32%10000m1011hPa79%
26-Jun-2024 00:00Light Rain26°C13 mph, SE43%10000m1010hPa78%
26-Jun-2024 03:00Light Rain27°C16 mph, SE79%10000m1011hPa77%
26-Jun-2024 06:00Broken Clouds27°C16 mph, SE73%10000m1012hPa77%
26-Jun-2024 09:00Light Rain27°C13 mph, SE69%10000m1011hPa77%